User: anonymous   Login
Location: Melbourne
(37.8170°S, 144.9670°E)
Time: 08:55:23
(UTC+11:00)
Language:

Aureole 2 Rocket - Orbit

View from above orbital plane
View from above orbital plane
View from above satellite
View from above satellite

Ground track
Ground track

The orbit data is extracted from the following two-line orbital elements,

1  7004U 73107B   17082.88721417 +.00021029 +00000-0 +32888-3 0  9991
2  7004 073.9334 248.3008 0182529 140.3283 221.1444 15.36898096224118
Epoch (UTC): 23 March 2017 21:17:35
Eccentricity: 0.0182529
inclination: 73.9334°
perigee height: 330 km
apogee height: 580 km
right ascension of ascending node: 248.3008°
argument of perigee: 140.3283°
revolutions per day: 15.36898096
mean anomaly at epoch: 221.1444°
orbit number at epoch: 22411

The dashed part of the orbit path shows where the satellite is in the earth's shadow,  

DLR